This is the latest recevied weather packets stored in our database for station/object EA5DFV. If no packets are shown the sender has not sent any weather packets the latest 10 day(s).
| Time | Temp. | Humidity | Pressure | Rain* | Wind** | Luminosity | Snow |
|---|---|---|---|---|---|---|---|
| 1778014113 | 17.22° C | 67% | 1010.2 hPa | 0 mm | - | 0 W/m² | - |
| 1778013803 | 17.22° C | 68% | 1010.1 hPa | 0 mm | - | 0 W/m² | - |
| 1778013517 | 17.22° C | 68% | 1010.1 hPa | 0 mm | - | 0 W/m² | - |
| 1778013207 | 17.22° C | 68% | 1010.2 hPa | 0 mm | - | 0 W/m² | - |
| 1778012917 | 17.22° C | 67% | 1010.1 hPa | 0 mm | - | 0 W/m² | - |
| 1778012611 | 17.78° C | 66% | 1010.1 hPa | 0 mm | - | 0 W/m² | - |
| 1778012321 | 17.78° C | 65% | 1010.1 hPa | 0 mm | - | 0 W/m² | - |
| 1778012011 | 17.78° C | 65% | 1010 hPa | 0 mm | - | 0 W/m² | - |
| 1778011722 | 18.33° C | 63% | 1010 hPa | 0 mm | - | 0 W/m² | - |
| 1778011412 | 18.33° C | 60% | 1009.9 hPa | 0 mm | - | 0 W/m² | - |
| 1778011107 | 18.33° C | 59% | 1009.8 hPa | 0 mm | - | 0 W/m² | - |
| 1778010817 | 18.33° C | 57% | 1009.7 hPa | 0 mm | - | 0 W/m² | - |
| 1778010220 | 18.89° C | 57% | 1009.7 hPa | 0 mm | - | 0 W/m² | - |
| 1778009911 | 18.89° C | 56% | 1009.5 hPa | 0 mm | - | 0 W/m² | - |
| 1778009607 | 18.89° C | 56% | 1009.6 hPa | 0 mm | - | 0 W/m² | - |
| 1778009318 | 18.89° C | 56% | 1009.5 hPa | 0 mm | - | 0 W/m² | - |
| 1778009008 | 18.89° C | 56% | 1009.4 hPa | 0 mm | - | 0 W/m² | - |
| 1778008719 | 18.89° C | 56% | 1009.4 hPa | 0 mm | - | 0 W/m² | - |
| 1778008414 | 18.89° C | 56% | 1009.4 hPa | 0 mm | - | 0 W/m² | - |
| 1778008104 | 18.89° C | 56% | 1009.2 hPa | 0 mm | - | 0 W/m² | - |
| 1778007814 | 18.89° C | 57% | 1009.2 hPa | 0 mm | - | 0 W/m² | - |
| 1778007507 | 18.89° C | 56% | 1009.1 hPa | 0 mm | - | 5 W/m² | - |
| 1778007204 | 18.89° C | 57% | 1009.1 hPa | 0 mm | - | 7 W/m² | - |
| 1778006913 | 18.89° C | 58% | 1009 hPa | 0 mm | - | 12 W/m² | - |
| 1778006607 | 18.89° C | 61% | 1009 hPa | 0 mm | - | 16 W/m² | - |
* Rain latest hour (hover to see other rain measurements)
** Current wind speed in m/s (hover to see current wind gust speed)